Location: Unspecified
(0.0000°N, 0.0000°E)
Time: 18:48:46
(UTC+00:00)

Vanguard 2 - Pass Details

Date: 19 November 2019
Orbit: 553 x 2938 km, 32.9° (Epoch: 06 December)

Event Time Altitude Azimuth Distance (km) Brightness Sun altitude
Rises 08:17:19 0° 282° (WNW) 5,889 11.6 35.5°
Reaches altitude 10° 08:26:18 10° 314° (NW) 4,108 10.9 37.5°
Maximum altitude 08:28:29 11° 326° (NW) 3,836 10.8 38.0°
Drops below altitude 10° 08:30:30 10° 338° (NNW) 3,690 10.7 38.5°
Sets 08:36:37 0° 15° (NNE) 4,008 11.1 39.9°
